Wind_Speed
23 23 23 23 24 23 23 23 21 19 17 15 13 12 11 10 8 8 7 7 6 6 6 6 5 5 4 4 4 4 4 5 5 5 5 5 5 5 5 6 6 7 7
25 24 24 24 24 24 24 24 24 22 20 18 16 14 13 12 10 10 9 9 8 7 7 6 6 6 6 5 5 5 5 6 6 6 6 6 6 6 6 6 7 7 8
26 25 25 25 25 25 24 24 25 25 23 21 19 17 15 14 13 12 11 10 9 8 8 8 7 7 7 6 6 6 7 7 7 7 7 7 7 7 7 7 8 8 8
28 26 26 26 26 25 25 25 25 25 25 24 22 20 18 17 15 14 13 12 11 10 9 9 9 9 8 7 7 8 8 8 8 8 9 9 9 8 8 8 9 9 9
30 29 27 27 27 27 26 26 26 26 26 25 25 23 21 19 18 16 15 14 13 12 11 11 10 10 10 9 9 9 9 9 9 10 10 10 10 10 10 10 10 10 11
33 32 30 29 29 28 28 27 27 27 27 27 26 26 24 22 21 19 18 16 15 14 13 12 12 12 11 11 10 10 11 11 11 11 12 12 12 12 12 12 12 12 12
36 34 33 31 30 30 30 29 29 29 29 29 28 28 27 25 23 22 20 19 17 16 15 14 14 14 13 12 12 12 12 12 13 13 13 13 14 14 14 13 13 13 14
39 37 36 34 33 32 32 31 30 30 30 30 30 29 28 28 26 24 23 21 19 18 17 16 16 16 15 14 14 14 14 14 14 15 15 15 15 16 16 16 16 16 16
42 40 38 37 36 35 34 33 31 31 31 32 32 31 30 29 28 27 25 23 22 20 19 18 18 18 17 16 16 15 16 16 16 16 16 17 17 17 18 18 18 18 18
44 43 42 40 39 37 35 35 33 32 32 33 33 33 32 31 30 30 28 26 24 23 21 20 19 20 19 18 18 18 18 18 18 18 18 18 19 19 20 20 20 20 20
47 46 44 43 42 40 39 37 36 35 34 33 34 35 34 33 32 32 30 29 26 25 24 22 22 22 21 20 20 20 20 20 20 20 20 20 20 21 21 22 22 22 22
49 48 47 46 45 43 42 41 39 38 37 36 36 37 37 36 35 34 33 31 29 27 26 25 24 24 23 23 22 22 22 21 21 22 22 22 22 23 23 24 24 24 25
52 51 50 49 47 46 45 43 42 40 39 38 37 38 38 38 36 36 34 33 31 30 29 28 26 26 25 25 24 24 24 23 23 24 24 24 25 25 25 26 26 27 27
54 53 52 51 50 48 47 46 44 42 41 41 40 39 39 39 38 37 36 35 34 33 31 30 28 28 28 27 27 26 26 25 26 26 26 26 26 26 27 28 28 29 29
56 56 55 54 53 51 49 48 46 45 45 43 42 41 40 40 40 39 39 38 37 35 34 32 31 30 29 28 28 28 28 28 27 27 27 27 28 28 29 29 30 31 31
58 57 56 55 55 54 52 50 49 48 46 44 43 42 41 40 40 40 40 40 39 38 36 35 33 32 31 31 31 30 30 29 29 29 29 29 29 30 31 31 32 32 33
58 58 57 57 56 55 54 52 50 50 49 46 45 44 43 41 41 41 41 41 41 40 39 38 36 35 34 33 33 33 32 31 31 31 32 32 32 32 33 33 34 34 34
57 58 58 58 57 56 55 53 52 52 51 49 47 45 43 43 42 42 42 42 42 41 41 39 38 37 36 36 35 34 34 33 33 34 34 33 33 34 35 35 35 35 36
54 56 57 57 57 56 56 54 54 52 52 50 49 46 45 44 44 44 43 43 43 43 42 41 40 39 38 37 37 37 36 36 35 35 35 35 35 35 36 37 37 37 37
53 54 55 56 56 56 55 54 53 51 51 50 50 48 47 46 45 45 45 44 43 43 43 43 41 40 39 39 39 38 38 38 38 38 38 37 37 37 38 38 39 39 40
51 52 53 54 54 55 55 53 51 50 50 50 50 50 49 48 47 46 45 44 43 43 43 44 43 42 42 42 41 41 41 41 41 40 40 40 40 40 40 40 41 42 42
47 49 51 52 53 54 55 54 53 52 51 50 51 50 49 48 46 45 44 44 43 44 44 44 44 44 44 44 44 44 44 43 42 42 42 42 42 42 42 43 43 43 44
41 45 48 50 51 52 54 54 55 53 53 52 52 50 49 49 48 47 45 44 44 45 45 45 46 46 47 47 46 46 45 44 44 44 43 43 44 44 44 45 44 45 45
34 38 42 44 47 49 51 52 52 51 51 51 51 50 50 51 50 49 47 46 45 45 46 46 46 47 47 47 47 47 47 47 47 46 44 44 45 45 46 46 47 47 48
28 30 33 36 39 43 46 48 48 49 49 49 50 50 50 50 50 49 47 47 47 46 45 46 46 45 46 47 47 48 48 47 47 46 46 46 47 47 48 48 48 48 49
22 24 26 30 34 37 41 44 45 45 46 47 48 49 47 48 48 47 47 46 45 45 45 44 44 45 45 45 46 47 48 48 47 48 49 49 49 49 50 50 50 50 50
Wind_Direction
251 251 250 248 247 247 245 244 244 243 243 243 244 246 249 252 257 263 269 277 285 293 301 305 302 297 291 281 268 256 249 251 254 259 268 276 288 299 308 320 329 335 341
251 251 251 249 247 247 247 246 245 244 244 244 244 245 247 250 253 258 264 269 275 282 287 291 292 290 283 277 268 262 257 256 258 261 266 271 279 289 299 308 316 323 330
250 250 250 250 248 247 247 246 246 246 245 244 245 245 246 248 251 255 260 265 269 273 277 280 282 281 279 276 271 265 263 263 262 264 267 270 276 283 291 298 304 312 319
250 250 250 250 248 247 248 246 245 246 245 245 245 245 246 247 249 251 255 261 265 268 270 273 274 274 274 274 272 268 266 267 266 266 267 269 273 279 285 290 297 304 311
249 249 250 250 248 247 247 247 246 245 245 245 245 245 246 247 248 249 252 256 260 262 265 268 269 270 269 270 271 270 268 268 268 268 268 269 273 276 280 285 291 298 305
249 249 249 249 248 247 247 246 246 246 246 246 245 245 245 247 248 249 251 254 257 259 261 264 266 267 268 267 269 270 269 269 269 269 268 269 272 275 278 282 287 293 299
247 248 248 248 248 248 247 246 246 246 246 246 245 245 245 246 248 250 251 253 255 257 258 261 262 264 265 266 266 268 268 269 269 268 267 268 271 273 276 279 283 289 294
246 247 247 247 247 248 248 247 247 246 246 246 245 245 246 246 248 250 251 252 254 255 257 258 259 261 263 263 264 266 267 268 269 269 268 269 272 273 275 278 281 286 291
245 246 246 246 246 246 246 247 246 246 245 245 245 245 245 246 247 249 251 252 254 255 255 256 257 260 262 262 263 265 267 268 269 269 269 270 272 273 275 277 280 284 288
245 245 245 245 245 245 245 245 245 246 245 245 245 245 245 245 246 248 250 251 253 254 255 255 256 259 261 262 262 264 266 268 269 269 270 271 272 272 273 275 278 282 286
244 244 245 244 244 244 244 245 245 245 245 245 245 245 244 245 245 246 248 249 251 253 254 255 256 258 260 261 262 263 265 267 268 269 270 271 272 272 273 275 278 281 284
243 243 243 244 245 244 244 244 244 244 245 245 245 245 244 244 245 246 247 248 250 252 253 254 255 257 259 261 262 263 264 266 268 269 270 271 272 272 273 275 277 280 283
243 242 242 243 244 244 244 244 244 244 244 244 245 245 244 244 244 245 246 247 249 251 253 254 255 257 259 260 262 263 263 265 267 269 271 272 272 273 274 276 278 279 282
242 242 242 242 243 243 243 243 242 243 243 244 244 245 245 244 244 244 245 247 249 250 252 253 254 256 258 260 261 261 262 265 266 268 270 271 272 274 275 277 279 281 282
243 242 241 241 241 241 241 242 242 242 242 244 244 244 244 245 245 245 244 246 248 249 250 252 253 255 257 258 260 261 263 265 266 268 270 271 273 274 276 278 280 282 283
243 242 241 240 239 239 239 240 240 240 241 243 243 243 243 244 244 244 244 245 247 249 250 251 252 253 255 256 258 260 263 264 266 267 269 271 273 275 277 279 281 282 284
242 241 239 239 238 237 237 238 238 239 239 241 242 242 241 241 242 243 244 245 246 248 249 250 251 252 255 257 258 260 262 264 266 267 269 270 272 274 276 278 280 282 284
241 239 238 237 236 237 236 236 237 238 239 239 240 240 239 239 241 242 243 244 245 247 249 250 251 252 255 257 258 260 262 263 265 267 268 270 272 274 276 278 280 282 283
239 238 238 236 235 235 235 234 236 237 237 238 238 239 240 239 240 242 243 245 247 247 248 250 252 253 255 257 259 260 262 263 264 267 268 270 271 273 275 277 279 281 283
238 238 238 235 234 234 233 233 233 234 234 235 237 238 239 240 240 240 242 245 246 247 249 251 252 254 255 257 259 260 262 263 265 267 268 269 270 272 274 276 277 280 281
240 238 237 235 234 232 230 231 231 232 233 235 237 239 239 239 240 241 243 244 245 246 248 251 252 254 256 257 259 261 262 264 265 265 267 268 270 272 273 275 276 278 279
240 238 237 237 236 233 231 230 231 233 233 234 236 237 238 238 239 241 243 244 244 246 248 251 253 255 257 258 260 262 262 263 264 265 267 268 271 272 273 275 276 277 277
240 238 237 236 236 234 231 230 231 232 233 233 235 236 236 237 239 240 241 243 245 247 250 252 255 256 258 260 260 262 264 264 265 265 267 269 271 273 274 275 277 277 277
237 236 235 235 234 232 231 231 231 231 231 232 233 235 237 237 239 239 239 243 245 248 251 254 256 259 260 260 261 263 265 266 267 267 268 271 272 274 275 276 277 277 278
231 230 231 230 229 228 229 230 231 230 230 232 233 235 236 237 238 239 241 245 247 250 252 254 256 259 260 261 263 265 266 267 268 269 270 271 272 274 275 276 276 277 278
226 225 226 225 225 227 228 230 230 229 230 232 233 234 236 238 240 241 244 246 247 250 252 254 257 259 260 262 265 267 268 269 270 271 272 272 272 274 275 276 276 277 277
Height
5847 5849 5851 5852 5854 5856 5858 5860 5862 5864 5866 5867 5868 5869 5870 5871 5871 5872 5873 5874 5875 5875 5876 5876 5877 5877 5877 5878 5878 5878 5879 5879 5879 5879 5879 5880 5880 5879 5879 5879 5878 5878 5877
5843 5845 5847 5849 5851 5852 5854 5856 5858 5860 5862 5864 5866 5867 5868 5869 5870 5871 5872 5873 5874 5874 5875 5875 5876 5876 5876 5877 5877 5877 5878 5878 5878 5878 5879 5879 5879 5879 5878 5878 5877 5877 5876
5839 5841 5843 5845 5847 5849 5850 5853 5855 5857 5859 5861 5863 5864 5866 5867 5868 5869 5870 5871 5872 5873 5874 5874 5875 5875 5875 5876 5876 5876 5877 5877 5877 5877 5878 5878 5878 5877 5877 5877 5876 5876 5875
5835 5837 5839 5841 5843 5844 5846 5848 5851 5853 5855 5857 5859 5861 5863 5864 5866 5867 5868 5869 5870 5871 5872 5873 5873 5874 5874 5875 5875 5875 5876 5876 5876 5876 5876 5876 5876 5876 5876 5875 5875 5874 5874
5830 5832 5834 5836 5838 5840 5842 5844 5846 5848 5851 5853 5855 5858 5860 5861 5863 5864 5865 5866 5868 5869 5870 5871 5871 5872 5873 5873 5874 5874 5874 5874 5874 5875 5875 5875 5875 5875 5874 5874 5873 5873 5872
5824 5827 5829 5831 5833 5835 5837 5839 5842 5844 5847 5849 5851 5853 5856 5858 5859 5861 5862 5864 5865 5866 5868 5868 5869 5870 5870 5871 5872 5872 5872 5873 5873 5873 5873 5873 5873 5873 5872 5872 5872 5871 5870
5817 5820 5823 5826 5828 5830 5833 5835 5837 5840 5842 5844 5847 5849 5851 5854 5856 5857 5859 5860 5862 5863 5865 5866 5866 5867 5868 5869 5869 5870 5870 5870 5871 5871 5871 5871 5871 5870 5870 5870 5869 5869 5868
5811 5814 5817 5820 5822 5825 5827 5830 5832 5834 5837 5839 5842 5844 5847 5849 5851 5853 5855 5857 5858 5860 5862 5863 5864 5864 5865 5866 5867 5867 5867 5868 5868 5868 5868 5868 5868 5868 5868 5867 5867 5866 5866
5803 5807 5810 5813 5816 5819 5821 5824 5826 5829 5831 5834 5837 5839 5842 5844 5847 5849 5851 5853 5855 5856 5858 5859 5860 5861 5862 5863 5864 5864 5864 5865 5865 5865 5865 5865 5865 5865 5865 5864 5864 5863 5863
5795 5799 5802 5806 5809 5812 5815 5818 5820 5823 5826 5828 5831 5834 5836 5839 5841 5844 5846 5849 5850 5852 5854 5855 5856 5857 5858 5859 5860 5861 5861 5861 5862 5862 5862 5862 5862 5862 5861 5861 5861 5860 5859
5786 5790 5794 5797 5801 5804 5808 5811 5814 5817 5819 5822 5825 5828 5831 5833 5836 5838 5841 5844 5846 5848 5849 5851 5852 5853 5854 5855 5856 5857 5857 5858 5858 5858 5858 5858 5858 5858 5858 5857 5857 5856 5855
5776 5780 5784 5789 5793 5796 5800 5803 5807 5810 5813 5816 5818 5821 5824 5827 5830 5833 5835 5838 5840 5843 5845 5846 5848 5849 5850 5851 5852 5852 5853 5853 5854 5854 5854 5854 5854 5854 5853 5853 5853 5852 5851
5765 5770 5774 5779 5783 5788 5792 5795 5799 5802 5806 5809 5812 5814 5818 5821 5824 5827 5829 5832 5835 5837 5839 5841 5843 5844 5845 5846 5847 5848 5848 5849 5849 5850 5850 5850 5849 5849 5849 5848 5848 5847 5846
5754 5759 5764 5768 5773 5778 5783 5787 5791 5795 5798 5801 5805 5807 5811 5814 5817 5820 5823 5826 5829 5831 5833 5835 5837 5838 5840 5841 5842 5842 5843 5844 5844 5844 5844 5844 5844 5844 5844 5843 5843 5842 5841
5742 5747 5752 5757 5763 5768 5773 5778 5782 5786 5790 5794 5797 5800 5803 5807 5810 5813 5816 5819 5822 5824 5827 5829 5831 5832 5834 5835 5836 5837 5838 5838 5839 5839 5839 5839 5839 5838 5838 5838 5837 5836 5835
5729 5735 5740 5746 5751 5757 5763 5768 5773 5777 5781 5785 5789 5793 5796 5799 5802 5806 5809 5812 5815 5817 5820 5822 5824 5826 5827 5829 5830 5831 5831 5832 5833 5833 5833 5833 5833 5832 5832 5831 5831 5830 5829
5716 5722 5727 5733 5739 5746 5752 5758 5763 5768 5772 5777 5781 5784 5788 5791 5794 5798 5801 5804 5807 5810 5812 5815 5817 5819 5821 5822 5823 5824 5825 5826 5826 5826 5826 5826 5826 5826 5825 5825 5824 5823 5823
5703 5709 5715 5721 5727 5734 5741 5747 5752 5758 5763 5767 5772 5776 5779 5783 5787 5790 5793 5797 5799 5802 5805 5807 5809 5811 5813 5815 5816 5817 5818 5819 5819 5819 5819 5819 5819 5819 5819 5818 5817 5816 5816
5690 5696 5702 5709 5715 5722 5729 5735 5742 5747 5753 5758 5763 5767 5771 5775 5778 5782 5785 5789 5791 5794 5797 5799 5801 5803 5805 5807 5808 5810 5810 5811 5812 5812 5812 5812 5812 5812 5812 5811 5810 5809 5808
5678 5684 5690 5697 5704 5710 5717 5724 5731 5737 5742 5748 5754 5759 5763 5766 5770 5773 5777 5780 5783 5786 5789 5791 5793 5795 5797 5798 5800 5802 5803 5804 5804 5804 5805 5805 5804 5804 5804 5803 5802 5801 5800
5666 5673 5679 5686 5692 5699 5707 5714 5721 5727 5733 5739 5744 5749 5753 5758 5762 5765 5768 5772 5775 5777 5780 5783 5785 5787 5789 5790 5792 5793 5795 5795 5796 5796 5796 5796 5796 5796 5795 5794 5793 5792 5791
5656 5662 5668 5674 5681 5688 5696 5703 5710 5717 5723 5729 5734 5739 5744 5748 5752 5756 5760 5763 5766 5769 5771 5774 5776 5778 5780 5781 5783 5784 5785 5787 5787 5787 5787 5787 5787 5786 5786 5785 5784 5783 5782
5647 5652 5658 5664 5670 5677 5684 5692 5699 5706 5712 5719 5724 5730 5735 5739 5743 5747 5751 5754 5757 5760 5763 5765 5767 5769 5771 5772 5773 5774 5776 5777 5777 5778 5777 5778 5777 5777 5776 5775 5774 5773 5772
5639 5643 5648 5654 5660 5666 5673 5680 5688 5695 5703 5710 5715 5720 5725 5730 5734 5738 5742 5745 5748 5751 5754 5756 5758 5760 5761 5762 5763 5764 5765 5766 5766 5768 5768 5768 5767 5766 5766 5765 5764 5762 5761
5632 5636 5640 5646 5651 5658 5664 5671 5679 5686 5693 5700 5705 5710 5716 5721 5725 5729 5733 5736 5739 5743 5745 5747 5748 5750 5751 5753 5753 5754 5755 5755 5755 5755 5756 5757 5757 5756 5755 5754 5752 5751 5750
5627 5631 5635 5640 5645 5651 5658 5664 5670 5677 5684 5690 5696 5702 5707 5712 5717 5721 5725 5728 5731 5733 5736 5737 5739 5740 5742 5742 5743 5743 5744 5744 5745 5744 5744 5744 5744 5744 5743 5742 5741 5739 5738